Regional Weather Roundup
Issued by NWS

Home | Current Version | Previous Version | Graphics & Text | Print | Product List | Glossary On
Versions: 1 2 3 4 5 6 7 8 9 10 11 12 13 14 15 16 17 18 19 20 21 22 23 24 25 26 27 28 29 30 31 32 33 34 35 36 37 38 39 40 41 42 43 44 45 46 47 48 49 50
485
ASUS45 KCYS 272310
RWRWY

WYOMING REGIONAL WEATHER ROUNDUP
NATIONAL WEATHER SERVICE CHEYENNE WY
500 PM MDT FRI MAY 27 2016

NOTE:  "FAIR" INDICATES FEW OR NO CLOUDS BELOW 12,000 FEET
WITH NO SIGNIFICANT WEATHER AND/OR OBSTRUCTIONS TO VISIBILITY.

WYZ001-280000-
YELLOWSTONE NATIONAL PARK

CITY           SKY/WX    TMP DP  RH WIND       PRES   REMARKS
LK YELLOWSTONE   N/A     52  29  41 W9G23     29.99F
W YELLOWSTONE  NOT AVBL

$$
WYZ002>013-054>058-071-098>099-280000-
NORTHERN WYOMING

CITY           SKY/WX    TMP DP  RH WIND       PRES   REMARKS
JACKSON        NOT AVBL
CODY           PTSUNNY   57  43  58 NE8       29.82S
GREYBULL       FAIR      69  33  26 SW7       29.77F
WORLAND        FAIR      70  36  28 NW6       29.79F
SHERIDAN       FAIR      67  44  43 S3        29.83S
BUFFALO          N/A     56  47  71 W8        29.89S
GILLETTE       FAIR      65  42  43 N9G16     29.85F
HULETT         MOCLDY    63  43  48 CALM      29.86S
NEWCASTLE      FAIR      64  34  32 NW10G20   29.84F

$$
WYZ014>020-022>026-101>103-280000-
CENTRAL WYOMING

CITY           SKY/WX    TMP DP  RH WIND       PRES   REMARKS
BIG PINEY      PTSUNNY   54  36  50 E14       29.96S
PINEDALE       LGT RAIN  50  32  50 SE5       29.97S
DUBOIS         FAIR      57  28  33 NW14G20   29.92R
LANDER         FAIR      67  32  27 CALM      29.81F
RIVERTON       FAIR      68  33  27 SE6       29.83F
CASPER         FAIR      60  36  40 S5        29.86S
DOUGLAS          N/A    N/A N/A N/A MISG      29.85F

$$
WYZ021-027>030-104>119-280000-
SOUTHERN WYOMING

CITY           SKY/WX    TMP DP  RH WIND       PRES   REMARKS
EVANSTON       CLOUDY    54  35  48 CALM      29.99F
KEMMERER       DRIZZLE   46  37  71 NW10G18   30.01R
FORT BRIDGER   MOCLDY    61  36  39 W13G18    30.01R
ROCK SPRINGS   PTSUNNY   56  36  47 SW21      29.93S
DIXON          CLOUDY    58  34  41 W13G20    29.97R
RAWLINS        FAIR      62  28  27 NW12G18   29.92S
SARATOGA       DRIZZLE   50  37  62 W12G21    29.94S
LARAMIE        FAIR      54  37  52 NE13G23   29.93R
CHEYENNE       FAIR      55  41  59 NE12      29.91F
TORRINGTON     HVY RAIN  51  46  83 SE10G28   29.87S VSB 1
PINE BLUFFS    FAIR      55  43  62 NE9       29.90S

$$




USA.gov is the U.S. government's official web portal to all federal, state and local government web resources and services.